N41ZF ZZZZ-MMCZ

Flight info

Callsign N41ZF
Flight time N/A
Altitude 5500
Route TQO CZM
Aircraft C414/L-SDFG/C

Departure

Time N/A
Airport ZZZZ

Arrival

Time 2026-04-30 21:24
Airport Cozumel International Airport (MMCZ)
Time Latitude Longitude Altitude Speed Heading
2026-04-30 21:04 20.22559 -87.43746 13 ft 0 kts 173°
2026-04-30 21:07 20.22551 -87.43748 13 ft 5 kts 218°
2026-04-30 21:07 20.22598 -87.43754 14 ft 14 kts 33°
2026-04-30 21:07 20.22669 -87.43722 14 ft 14 kts 320°
2026-04-30 21:07 20.22728 -87.43821 12 ft 18 kts 305°
2026-04-30 21:08 20.22804 -87.43940 12 ft 20 kts 303°
2026-04-30 21:08 20.22884 -87.44063 13 ft 21 kts 304°
2026-04-30 21:08 20.22972 -87.44202 13 ft 24 kts 304°
2026-04-30 21:08 20.23054 -87.44337 17 ft 20 kts 303°
2026-04-30 21:09 20.23120 -87.44457 17 ft 17 kts 292°
2026-04-30 21:09 20.23171 -87.44522 18 ft 9 kts 91°
2026-04-30 21:09 20.23123 -87.44445 17 ft 24 kts 124°
2026-04-30 21:09 20.22923 -87.44127 13 ft 77 kts 123°
2026-04-30 21:10 20.22696 -87.43762 22 ft 100 kts 122°
2026-04-30 21:10 20.22277 -87.43080 101 ft 118 kts 122°
2026-04-30 21:10 20.21843 -87.42302 257 ft 131 kts 112°
2026-04-30 21:10 20.21785 -87.41369 667 ft 127 kts 67°
2026-04-30 21:11 20.22381 -87.40661 965 ft 132 kts 43°
2026-04-30 21:11 20.23044 -87.39996 1319 ft 133 kts 44°
2026-04-30 21:11 20.23688 -87.39289 1680 ft 133 kts 44°
2026-04-30 21:11 20.24358 -87.38618 2032 ft 134 kts 44°
2026-04-30 21:12 20.24995 -87.37864 2356 ft 135 kts 52°
2026-04-30 21:12 20.25567 -87.37094 2765 ft 130 kts 47°
2026-04-30 21:12 20.26096 -87.36317 3098 ft 131 kts 60°
2026-04-30 21:12 20.26533 -87.35509 3463 ft 126 kts 58°
2026-04-30 21:13 20.26978 -87.34750 3815 ft 123 kts 60°
2026-04-30 21:13 20.27393 -87.33922 4079 ft 129 kts 59°
2026-04-30 21:13 20.27865 -87.33077 4331 ft 137 kts 57°
2026-04-30 21:13 20.28369 -87.32191 4578 ft 144 kts 60°
2026-04-30 21:14 20.28877 -87.31243 4826 ft 150 kts 60°
2026-04-30 21:14 20.29406 -87.30263 5087 ft 154 kts 59°
2026-04-30 21:14 20.29817 -87.29204 5347 ft 157 kts 83°
2026-04-30 21:14 20.30036 -87.28063 5615 ft 159 kts 64°
2026-04-30 21:15 20.30571 -87.27016 5785 ft 168 kts 61°
2026-04-30 21:15 20.31168 -87.25892 5718 ft 181 kts 59°
2026-04-30 21:15 20.31833 -87.24701 5613 ft 192 kts 59°
2026-04-30 21:15 20.32528 -87.23476 5600 ft 194 kts 58°
2026-04-30 21:16 20.33221 -87.22253 5605 ft 192 kts 59°
2026-04-30 21:16 20.33897 -87.21058 5601 ft 190 kts 59°
2026-04-30 21:16 20.34577 -87.19853 5603 ft 189 kts 59°
2026-04-30 21:16 20.35256 -87.18651 5557 ft 191 kts 59°
2026-04-30 21:17 20.35936 -87.17444 5377 ft 190 kts 59°
2026-04-30 21:17 20.36620 -87.16235 5177 ft 190 kts 58°
2026-04-30 21:17 20.37593 -87.15324 4950 ft 190 kts 21°
2026-04-30 21:17 20.38798 -87.14766 4751 ft 189 kts 30°
2026-04-30 21:18 20.39861 -87.13941 4559 ft 189 kts 41°
2026-04-30 21:18 20.40733 -87.12897 4354 ft 189 kts 57°
2026-04-30 21:18 20.41356 -87.11672 4057 ft 187 kts 63°
2026-04-30 21:18 20.41990 -87.10438 3628 ft 189 kts 56°
2026-04-30 21:19 20.42801 -87.09363 3292 ft 186 kts 51°
2026-04-30 21:19 20.43624 -87.08307 3007 ft 182 kts 48°
2026-04-30 21:19 20.44452 -87.07314 2759 ft 179 kts 48°
2026-04-30 21:19 20.45292 -87.06324 2470 ft 179 kts 47°
2026-04-30 21:20 20.46121 -87.05350 2223 ft 177 kts 47°
2026-04-30 21:20 20.46961 -87.04420 2043 ft 171 kts 46°
2026-04-30 21:20 20.47807 -87.03532 1826 ft 170 kts 43°
2026-04-30 21:20 20.48682 -87.02685 1602 ft 171 kts 41°
2026-04-30 21:21 20.49584 -87.01827 1383 ft 175 kts 42°
2026-04-30 21:21 20.50480 -87.00951 1272 ft 173 kts 42°
2026-04-30 21:21 20.52203 -86.99278 1247 ft 163 kts 42°
2026-04-30 21:22 20.53030 -86.98460 1246 ft 163 kts 43°
2026-04-30 21:22 20.52764 -86.95745 384 ft 138 kts 111°
2026-04-30 21:23 20.52426 -86.94876 160 ft 125 kts 119°
2026-04-30 21:23 20.52050 -86.94074 73 ft 119 kts 116°
2026-04-30 21:23 20.51463 -86.92790 17 ft 66 kts 115°
2026-04-30 21:24 20.51373 -86.92563 17 ft 13 kts 133°
2026-04-30 21:24 20.51353 -86.92533 17 ft 3 kts 205°
2026-04-30 21:24 20.51361 -86.92572 17 ft 6 kts 300°
2026-04-30 21:24 20.51387 -86.92624 18 ft 9 kts 297°
2026-04-30 21:25 20.51422 -86.92785 17 ft 11 kts 211°
2026-04-30 21:25 20.51352 -86.92824 17 ft 13 kts 204°
2026-04-30 21:25 20.51262 -86.92871 16 ft 14 kts 204°
2026-04-30 21:26 20.51289 -86.93034 16 ft 13 kts 294°
2026-04-30 21:26 20.51319 -86.93122 15 ft 12 kts 299°
2026-04-30 21:27 20.51326 -86.93235 15 ft 6 kts 169°
2026-04-30 21:27 20.51314 -86.93219 15 ft 0 kts 113°